Home > Weather > Basel > Past weeks

Flag for Switzerland Past Weather in Basel, Basel-Stadt, Switzerland — Yesterday and Last 2 Weeks

Now
68 °F

Partly sunny.


Feels Like: 68 °F
Forecast: 58 / 70 °F
Wind: 5 mph from Southeast

Location: Bale-Mulhouse

Current Time: May 28, 2016 at 12:02:12 PM

Latest Report: May 28, 2016 at 11:30 AM


Visibility: N/A

Pressure: 29.92 "Hg

Humidity: 78%

Dew Point: 61 °F

Location of BaselLocation

Past Weather in Basel — Graph

°F

Basel Temperature Yesterday

Maximum temperature yesterday: 81 °F (at 4:30 PM)
Minimum temperature yesterday: 54 °F (at 6:30 AM)
Average temperature yesterday: 68 °F

High & Low Weather Summary for the Past Weeks

 TemperatureHumidityPressure
High81 °F (May 27, 4:30 PM)100% (May 17, 5:00 AM)30.21 "Hg (May 17, 5:00 AM)
Low41 °F (May 16, 1:30 AM)37% (May 26, 5:30 PM)29.53 "Hg (May 13, 10:00 AM)
Average57 °F75%29.98 "Hg
* Reported May 13 10:00 AM — May 28 10:30 AM, Basel, Weather by CustomWeather, © 2016

Note: Actual official high and low records may vary slightly from our data, if they occured in-between our weather recording intervals... More about our weather records

Advertising

Basel Weather History for the Previous 24 Hours

Scroll right to see more
 ConditionsComfort  
Time TempWeatherWind HumidityBarometerVisibility
10:30 AM
Sat, May 28
68 °FBroken clouds.5 mph78%29.95 "HgN/A
10:00 AM66 °FPartly sunny.5 mph78%29.95 "HgN/A
9:30 AM66 °FPartly sunny.6 mph83%29.92 "HgN/A
9:00 AM66 °FPartly sunny.7 mph78%29.92 "HgN/A
8:30 AM64 °FPartly sunny.7 mph83%29.95 "HgN/A
8:00 AM66 °FPartly sunny.3 mph78%29.95 "HgN/A
7:30 AM66 °FPartly sunny.5 mph83%29.95 "HgN/A
7:00 AM63 °FBroken clouds.7 mph88%29.92 "HgN/A
6:30 AM63 °FPartly cloudy.8 mph88%29.95 "HgN/A
6:00 AM63 °FPassing clouds.9 mph88%29.95 "HgN/A
5:30 AM63 °FPartly cloudy.8 mph88%29.95 "HgN/A
5:00 AM63 °FPartly cloudy.3 mph94%29.95 "HgN/A
4:30 AM63 °FPartly cloudy.2 mph94%29.98 "HgN/A
4:00 AM63 °FMostly cloudy.2 mph94%29.98 "HgN/A
3:30 AM63 °FLight rain. Overcast.2 mph94%29.95 "HgN/A
3:00 AM64 °FLight rain. Overcast.5 mph83%29.98 "HgN/A
2:30 AM64 °FThundershowers. Mostly cloudy.5 mph83%29.95 "HgN/A
2:00 AM64 °FMild.7 mph78%29.95 "HgN/A
1:30 AM64 °FMild.5 mph83%29.95 "HgN/A
1:00 AM64 °FClear.6 mph83%29.95 "Hg10 mi
12:30 AM64 °FPassing clouds.6 mph78%29.92 "HgN/A
12:00 AM64 °FPartly cloudy.6 mph78%29.92 "HgN/A
11:30 PM
Fri, May 27
66 °FPartly cloudy.7 mph73%29.92 "HgN/A
11:00 PM64 °FClear.5 mph73%29.92 "Hg10 mi
10:30 PM68 °FClear.7 mph64%29.95 "Hg10 mi
10:00 PM68 °FSunny.6 mph64%29.95 "Hg10 mi
9:30 PM70 °FSunny.8 mph64%29.92 "Hg10 mi
9:00 PM72 °FBroken clouds.9 mph65%29.92 "HgN/A
8:30 PM75 °FPartly sunny.2 mph61%29.92 "HgN/A
8:00 PM77 °FPartly sunny.3 mph54%29.92 "HgN/A
7:30 PM79 °FScattered clouds.5 mph48%29.89 "HgN/A
7:00 PM79 °FPartly sunny.7 mph48%29.92 "HgN/A
6:30 PM81 °FBroken clouds.5 mph48%29.89 "HgN/A
6:00 PM79 °FBroken clouds.5 mph48%29.92 "HgN/A
5:30 PM81 °FBroken clouds.6 mph45%29.92 "HgN/A
5:00 PM81 °FBroken clouds.6 mph42%29.92 "HgN/A
4:30 PM81 °FBroken clouds.7 mph45%29.92 "HgN/A
4:00 PM79 °FBroken clouds.6 mph48%29.92 "HgN/A
3:30 PM79 °FBroken clouds.5 mph51%29.92 "HgN/A
3:00 PM79 °FBroken clouds.7 mph48%29.92 "HgN/A
2:30 PM77 °FBroken clouds.6 mph44%29.92 "HgN/A
2:00 PM77 °FPartly sunny.5 mph47%29.95 "HgN/A
1:30 PM77 °FPartly sunny.5 mph44%29.95 "HgN/A
1:00 PM75 °FPartly sunny.3 mph50%29.95 "HgN/A
12:30 PM75 °FPartly sunny.3 mph47%29.95 "HgN/A
12:00 PM75 °FPartly sunny.2 mph54%29.98 "HgN/A
Weather by CustomWeather, © 2016

See weather overviewHow to use our weather pages